Hourly Data Report for December 26, 2020

SHEARWATER RCS
NOVA SCOTIA
Current Station Operator: ECCC - MSC

44°37'47.000" N
63°30'48.000" W
24.00 m
8205092
71264
AAW

Download Data

Hourly Data (December 2020)
Hourly Data Report for December 26, 2020
TIME
LST
Temp Definition
°C
Dew Point Definition
°C
Rel Hum Definition
%
Precip. Amount Definition
mm

Wind Dir Definition
10's deg

Wind Spd Definition
km/h
Visibility Definition
km
Stn Press Definition
kPa
Hmdx Definition


Wind Chill Definition


Weather Definition


00:00 11.2 10.0 92 0.0 12 25   101.31     LegendNANA
01:00 11.1 9.8 92 0.0 13 24   101.21     LegendNANA
02:00 11.2 9.5 89 0.0 14 26   101.14     LegendNANA
03:00 11.1 9.4 89 0.0 14 28   101.06     LegendNANA
04:00 11.2 9.3 89 0.0 14 28   100.94     LegendNANA
05:00 11.0 9.4 90 0.0 13 24   100.83     LegendNANA
06:00 11.2 9.6 90 0.0 13 27   100.72     LegendNANA
07:00 11.1 9.5 90 0.0 14 27   100.65     LegendNANA
08:00 11.0 9.5 90 0.0 13 25   100.58     LegendNANA
09:00 11.1 9.5 90 0.0 13 30   100.49     LegendNANA
10:00 11.6 10.0 90 0.0 13 33   100.41     LegendNANA
11:00 11.6 10.1 91 0.0 13 34   100.26     LegendNANA
12:00 12.2 10.4 88 0.0 13 37   100.00     LegendNANA
13:00 11.6 10.1 90 0.0 12 36   99.78     LegendNANA
14:00 8.5 7.6 94 3.9 24 26   99.85     LegendNANA
15:00 4.8 3.6 92 1.0 28 22   100.01     LegendNANA
16:00 3.2 1.9 91 0.4 28 18   100.06     LegendNANA
17:00 1.7 0.9 94 1.3 26 11   100.14     LegendNANA
18:00 0.3 -0.2 97 2.3 21 2   100.14     LegendNANA
19:00 1.0 0.4 96 0.2 20 12   100.16     LegendNANA
20:00 2.0 -1.4 78 0.8 24 21   100.24     LegendNANA
21:00 1.8 -1.7 77 0.0 23 17   100.28     LegendNANA
22:00 1.7 -2.2 75 0.0 23 16   100.35     LegendNANA
23:00 2.2 -2.5 71 0.0 24 17   100.37     LegendNANA

Notes on Data Quality.

Legend

  • E = Estimated
  • M = Missing
  • NA = Not Available*
  • [empty] = Indicates an unobserved value
Date modified: